Date String (YYYY-MM-DD hh:mm:ss) UTC,Instrument flags,absolute air pressure of the measurement (hPa),sample flow rate (lpm),inlet stack bypass flow (lpm),air temperature of the measurement (°C),ambient temperature measured by the external sensor (°C),aerosol sample conditioner tube jacket temperature (°C),OPC LED temperature (°C),internal box temperature (°C),relative humidity of the measurement (%),span deviation,mass concentration of particles derived from Lorenz-Mie calculation of OPC scattering (μg/m³),mass concentration of particles derived from Lorenz-Mie calculation of OPC scattering (μg/m³),mass concentration of particles derived from Lorenz-Mie calculation of OPC scattering (μg/m³)
DateTimeUTC,F1_M11,P_M11,Q1_M11,Q2_M11,T1_M11,T2_M11,T3_M11,T4_M11,T5_M11,U1_M11,ZSPAN_M11,X0_M11,X2_M11,X1_M11
2024-06-11 12:00:00,SystemResetWarning,0832.2,5.00,000.00,031.4,030.7,000.0,039.9,033.1,030.3,0000.0,0011.25,0006.39,0005.30
2024-06-11 12:01:00,SystemResetWarning,0832.2,5.01,000.00,031.5,030.7,000.0,039.9,033.1,030.3,0000.0,0011.00,0006.39,0005.31
2024-06-11 12:02:00,SystemResetWarning,0832.2,5.01,000.00,031.5,030.7,000.0,039.9,033.1,030.4,0000.0,0010.93,0006.36,0005.31
2024-06-11 12:03:00,SystemResetWarning,0832.2,5.00,000.00,031.4,030.7,000.0,039.9,033.1,030.4,0000.0,0010.94,0006.31,0005.29
2024-06-11 12:04:00,SystemResetWarning,0832.2,5.01,000.00,031.4,030.7,000.0,039.9,033.1,030.4,0000.0,0011.04,0006.26,0005.29
2024-06-11 12:05:00,SystemResetWarning,0832.2,4.99,000.00,031.4,030.7,000.0,039.9,033.1,030.4,0000.0,0010.92,0006.20,0005.30
2024-06-11 12:06:00,SystemResetWarning,0832.2,5.00,000.00,031.4,030.7,000.0,039.9,033.1,030.4,0000.0,0010.92,0006.21,0005.29
2024-06-11 12:07:00,SystemResetWarning,0832.2,4.99,000.00,031.4,030.7,000.0,039.9,033.1,030.4,0000.0,0010.96,0006.19,0005.28
2024-06-11 12:08:00,SystemResetWarning,0832.2,5.00,000.00,031.4,030.7,000.0,039.9,033.1,030.4,0000.0,0010.90,0006.16,0005.29
2024-06-11 12:09:00,SystemResetWarning,0832.2,5.00,000.00,031.4,030.7,000.0,039.9,033.1,030.4,0000.0,0010.78,0006.14,0005.31
2024-06-11 12:10:00,SystemResetWarning,0832.2,5.01,000.00,031.4,030.7,000.0,039.9,033.1,030.3,0000.0,0010.91,0006.20,0005.34
2024-06-11 12:11:00,SystemResetWarning,0832.2,5.00,000.00,031.4,030.7,000.0,039.9,033.1,030.3,0000.0,0011.28,0006.24,0005.35
2024-06-11 12:12:00,SystemResetWarning,0832.2,5.00,000.00,031.4,030.7,000.0,039.9,033.1,030.3,0000.0,0011.32,0006.23,0005.35
2024-06-11 12:13:00,SystemResetWarning,0832.2,5.00,000.00,031.4,030.7,000.0,039.9,033.1,030.3,0000.0,0011.25,0006.24,0005.35
2024-06-11 12:14:00,SystemResetWarning,0832.2,5.00,000.00,031.4,030.7,000.0,039.9,033.1,030.4,0000.0,0011.16,0006.30,0005.36
2024-06-11 12:15:00,SystemResetWarning,0832.2,5.01,000.00,031.4,030.7,000.0,039.9,033.1,030.4,0000.0,0010.55,0006.27,0005.36
2024-06-11 12:16:00,SystemResetWarning,0832.2,5.00,000.00,031.4,030.6,000.0,039.9,033.0,030.2,0000.0,0011.17,0006.30,0005.37
2024-06-11 12:17:00,SystemResetWarning,0832.2,5.00,000.00,031.4,030.6,000.0,039.9,033.0,030.0,0000.0,0011.38,0006.30,0005.38
2024-06-11 12:18:00,SystemResetWarning,0832.2,5.00,000.00,031.4,030.6,000.0,039.9,033.0,030.0,0000.0,0011.26,0006.26,0005.38
2024-06-11 12:19:00,SystemResetWarning,0832.3,5.00,000.00,031.4,030.6,000.0,039.9,033.0,030.1,0000.0,0011.21,0006.26,0005.37
2024-06-11 12:20:00,SystemResetWarning,0832.3,5.00,000.00,031.4,030.6,000.0,039.9,033.0,030.1,0000.0,0011.38,0006.28,0005.38
2024-06-11 12:21:00,SystemResetWarning,0832.2,5.00,000.00,031.4,030.6,000.0,039.9,033.0,030.1,0000.0,0011.84,0006.23,0005.36
2024-06-11 12:22:00,SystemResetWarning,0832.2,5.00,000.00,031.4,030.6,000.0,039.9,033.0,030.0,0000.0,0011.55,0006.18,0005.34
2024-06-11 12:23:00,SystemResetWarning,0832.2,5.00,000.00,031.4,030.5,000.0,039.9,033.0,030.0,0000.0,0011.51,0006.18,0005.33
2024-06-11 12:24:00,SystemResetWarning,0832.2,5.00,000.00,031.4,030.5,000.0,039.9,033.0,029.8,0000.0,0011.56,0006.16,0005.33
2024-06-11 12:25:00,SystemResetWarning,0832.2,5.00,000.00,031.4,030.5,000.0,039.9,033.0,029.8,0000.0,0012.35,0006.11,0005.32
2024-06-11 12:26:00,SystemResetWarning,0832.2,5.00,000.00,031.3,030.5,000.0,039.9,033.0,029.8,0000.0,0012.92,0006.11,0005.31
2024-06-11 12:27:00,SystemResetWarning,0832.2,5.00,000.00,031.3,030.5,000.0,039.8,033.0,029.8,0000.0,0012.56,0006.08,0005.30
2024-06-11 12:28:00,SystemResetWarning,0832.2,5.00,000.00,031.3,030.5,000.0,039.8,033.0,029.9,0000.0,0012.56,0006.09,0005.29
2024-06-11 12:29:00,SystemResetWarning,0832.2,5.00,000.00,031.3,030.5,000.0,039.8,033.0,029.9,0000.0,0012.82,0006.10,0005.29
2024-06-11 12:30:00,SystemResetWarning,0832.2,4.99,000.00,031.3,030.5,000.0,039.8,033.0,029.9,0000.0,0012.90,0006.09,0005.27
2024-06-11 12:31:00,SystemResetWarning,0832.2,4.99,000.00,031.3,030.5,000.0,039.8,033.0,029.9,0000.0,0012.80,0006.08,0005.25
2024-06-11 12:32:00,SystemResetWarning,0832.3,5.00,000.00,031.3,030.5,000.0,039.8,033.0,030.0,0000.0,0012.87,0006.03,0005.23
2024-06-11 12:33:00,SystemResetWarning,0832.2,5.00,000.00,031.3,030.5,000.0,039.8,033.0,030.1,0000.0,0012.82,0006.00,0005.22
2024-06-11 12:34:00,SystemResetWarning,0832.2,5.00,000.00,031.3,030.5,000.0,039.8,033.0,030.2,0000.0,0013.61,0005.97,0005.21
2024-06-11 12:35:00,SystemResetWarning,0832.2,5.01,000.00,031.3,030.5,000.0,039.8,033.0,030.3,0000.0,0013.71,0005.98,0005.21
2024-06-11 12:36:00,SystemResetWarning,0832.3,5.00,000.00,031.3,030.5,000.0,039.8,033.0,030.3,0000.0,0012.79,0005.99,0005.21
2024-06-11 12:37:00,SystemResetWarning,0832.3,5.00,000.00,031.3,030.5,000.0,039.8,033.0,030.4,0000.0,0012.35,0006.00,0005.21
2024-06-11 12:38:00,SystemResetWarning,0832.2,5.00,000.00,031.3,030.5,000.0,039.8,032.9,030.4,0000.0,0012.12,0006.04,0005.21
2024-06-11 12:39:00,SystemResetWarning,0832.2,5.00,000.00,031.3,030.5,000.0,039.8,032.9,030.8,0000.0,0011.94,0006.04,0005.19
2024-06-11 12:40:00,SystemResetWarning,0832.2,4.99,000.00,031.3,030.5,000.0,039.8,033.0,030.8,0000.0,0011.80,0006.06,0005.18
2024-06-11 12:41:00,SystemResetWarning,0832.2,5.00,000.00,031.3,030.5,000.0,039.8,032.9,030.5,0000.0,0011.82,0006.08,0005.19
2024-06-11 12:42:00,SystemResetWarning,0832.2,5.00,000.00,031.3,030.5,000.0,039.8,033.0,030.4,0000.0,0012.04,0006.13,0005.19
2024-06-11 12:43:00,SystemResetWarning,0832.2,5.00,000.00,031.3,030.5,000.0,039.8,033.0,030.4,0000.0,0011.92,0006.14,0005.19
2024-06-11 12:44:00,SystemResetWarning,0832.2,5.00,000.00,031.3,030.5,000.0,039.8,032.9,030.4,0000.0,0011.93,0006.16,0005.20
2024-06-11 12:45:00,SystemResetWarning,0832.2,5.00,000.00,031.3,030.5,000.0,039.8,032.9,030.4,0000.0,0011.25,0006.18,0005.21
2024-06-11 12:46:00,SystemResetWarning,0832.2,5.00,000.00,031.3,030.5,000.0,039.8,032.9,030.5,0000.0,0010.91,0006.14,0005.21
2024-06-11 12:47:00,SystemResetWarning,0832.2,5.00,000.00,031.3,030.5,000.0,039.8,032.9,030.5,0000.0,0010.92,0006.16,0005.20
2024-06-11 12:48:00,SystemResetWarning,0832.2,5.00,000.00,031.3,030.5,000.0,039.8,032.9,030.5,0000.0,0010.93,0006.19,0005.21
2024-06-11 12:49:00,SystemResetWarning,0832.2,5.00,000.00,031.3,030.5,000.0,039.8,032.9,030.8,0000.0,0011.57,0006.18,0005.21
2024-06-11 12:50:00,SystemResetWarning,0832.2,5.00,000.00,031.3,030.5,000.0,039.8,032.9,030.6,0000.0,0011.76,0006.17,0005.22
2024-06-11 12:51:00,SystemResetWarning,0832.2,5.00,000.00,031.3,030.5,000.0,039.8,032.9,030.8,0000.0,0011.73,0006.18,0005.25
2024-06-11 12:52:00,SystemResetWarning,0832.2,5.00,000.00,031.3,030.5,000.0,039.8,032.9,030.8,0000.0,0011.88,0006.22,0005.26
2024-06-11 12:53:00,SystemResetWarning,0832.2,5.01,000.00,031.3,030.5,000.0,039.8,032.9,030.6,0000.0,0011.83,0006.20,0005.27
2024-06-11 12:54:00,SystemResetWarning,0832.2,5.01,000.00,031.3,030.5,000.0,039.8,032.9,030.5,0000.0,0011.82,0006.22,0005.28
2024-06-11 12:55:00,SystemResetWarning,0832.2,4.99,000.00,031.3,030.5,000.0,039.8,032.9,030.6,0000.0,0012.46,0006.28,0005.29
2024-06-11 12:56:00,SystemResetWarning,0832.2,4.99,000.00,031.3,030.4,000.0,039.8,032.9,030.7,0000.0,0012.70,0006.29,0005.31
2024-06-11 12:57:00,SystemResetWarning,0832.2,5.00,000.00,031.3,030.4,000.0,039.8,032.9,030.8,0000.0,0012.81,0006.34,0005.32
2024-06-11 12:58:00,SystemResetWarning,0832.2,5.00,000.00,031.3,030.4,000.0,039.8,032.9,030.6,0000.0,0013.03,0006.37,0005.33
2024-06-11 12:59:00,SystemResetWarning,0832.2,5.01,000.00,031.3,030.5,000.0,039.8,032.9,030.7,0000.0,0013.04,0006.37,0005.33
